Regional Weather Roundup
Issued by NWS State College, PA

Home | Current Version | Previous Version | Text Only | Print | Product List | Glossary On
Versions: 1 2 3 4 5 6 7 8 9 10 11 12 13 14 15 16 17 18 19 20 21 22 23 24 25 26 27 28 29 30 31 32 33 34 35 36 37 38 39 40 41 42 43 44 45 46 47 48 49 50
000
ASUS41 KCTP 200910
RWRCTP

REGIONAL WEATHER ROUNDUP
NATIONAL WEATHER SERVICE STATE COLLEGE PA
400 AM EST MON FEB 20 2017

Note: "fair" indicates few or no clouds below 12,000 feet with no
significant weather and/or obstructions to visibility.

* = STATION THAT DOES NOT REPORT PRECIPITATION /E.G. RAIN...SNOW...ETC/
    THUNDER OR FOG.

PAZ002>004-007>009-013>016-020>023-029>032-201000-
WESTERN PENNSYLVANIA

CITY           SKY/WX    TMP DP  RH WIND       PRES   REMARKS
ERIE           CLEAR     30  27  88 CALM      30.20R
MEADVILLE      CLEAR     34  28  79 CALM      30.16S
FRANKLIN*      CLEAR     34  28  80 SW3       30.17S
NEW CASTLE     FAIR      31  28  89 CALM      30.18S
BEAVER COUNTY  NOT AVBL
BUTLER*        CLEAR     36  28  75 CALM      30.17S
PITTSBURGH INT CLEAR     40  39  97 CALM      30.16F FOG
PITTSBURGH     CLEAR     44  39  82 S3        30.16F HAZE
INDIANA*       CLOUDY    34  34 100 CALM      30.18F FOG
LATROBE        MOCLDY    41  41 100 SW7       30.18S FOG
WASHINGTON CO* CLOUDY    34  30  86 CALM      30.19S VSB<1/4
$$

PAZ004>006-010>012-017>019-024>028-033>037-041-042-045-046-049>053-201000-
CENTRAL PENNSYLVANIA

CITY           SKY/WX    TMP DP  RH WIND       PRES   REMARKS
BRADFORD       CLEAR     29  27  92 CALM      30.13S
DUBOIS         CLEAR     37  29  72 W5        30.13S
CLEARFIELD       N/A    N/A N/A N/A MISG      30.13S
JOHNSTOWN      CLEAR     40  38  93 W9        30.13R
ALTOONA        CLEAR     44  34  67 NW7       30.13S
STATE COLLEGE  CLEAR     42  30  62 CALM      30.13S
WILLIAMSPORT   CLEAR     42  31  64 W8        30.12R
SELINSGROVE    CLEAR     35  31  85 N7        30.13R
FT INDIANTOWN  CLEAR     49  31  50 W7        30.09R
CAPITAL CITY   CLEAR     53  29  39 NW7       30.10R
HARRISBURG     PTCLDY    48  31  51 NW7       30.09R
YORK           CLEAR     41  29  62 NW5       30.09R
$$

PAZ038>040-043-044-047-048-054-055-060>062-067>071-201000-
EASTERN PENNSYLVANIA

CITY           SKY/WX    TMP DP  RH WIND       PRES   REMARKS
SCRANTON       CLEAR     41  31  67 VRB5      30.09R
MOUNT POCONO   CLEAR     35  29  78 NW9       30.02R
ALLENTOWN      CLEAR     39  30  70 N8        30.08R
QUAKERTOWN*    SUNNY     45  32  61 N3        30.08R
READING        CLEAR     46  34  62 N6        30.08R
LANCASTER      CLEAR     47  33  58 NW7       30.09R
COATESVILLE    SUNNY     48  30  49 N7        30.09R
POTTSTOWN      CLEAR     47  32  56 N9        30.09R
BLUE BELL      CLEAR     45  32  61 CALM      30.07R
DOYLESTOWN     CLEAR     46  32  58 NW7       30.07R
WILLOW GROVE   NOT AVBL
NORTH PHILA    CLEAR     47  33  58 N8        30.09R
PHILADELPHIA   CLEAR     49  32  52 N10       30.08R
$$




USA.gov is the U.S. government's official web portal to all federal, state and local government web resources and services.